Find Starlink 35408

NORAD ID: 65859 Int'l Des: 2025-223 Owner: SPXS Country: US Constellation: starlink operational
LEOCIRCULAR

Live Position

Loading 3D Globe...

About Starlink 35408

Description loading...

Upcoming Passes

Passes for default location (London). Set your location on the main map for personalized predictions.

Altitude History

Loading altitude history...

Two-Line Element Set

1 65859U 25223F 26106.72094023 .00009971 00000-0 34832-3 0 9998
2 65859 53.1558 117.8622 0001059 88.2932 271.8190 15.30199272 30028
Epoch: Apr 16, 2026 • Age: 10 hours

Current Status

Altitude 475.9 km
Velocity 7.63 km/s
Sub-Earth Point 25.66°N, 19.43°E
Launch Date Oct 3, 2025
Age 0.5 years
Type internet

Technical Details

Classification Payload
Mass 575.00 kg
Dry Mass 530.00 kg
Total Mass 575.00 kg
Length 0.30 m
Diameter 4.10 m
Span 29.00 m
Shape Box + pan
Manufacturer SPXS
Bus Type Starlink V2MO
Phase Status In Orbit
Owner/State SPXS/US

Most Searched